| time (UTC) | temp F | wind direction | speed knots | gust knots | rain 1hr in | rain 24hr in | rain mn in | humidity % | barometer mb |
| 20260508023023 | 48 | 348 | 1.7 | 3.5 | 0.00 | 0.04 | 0.01 | 57 | 1008.0 |
| 20260508022033 | 48 | 355 | 1.7 | 3.5 | 0.00 | 0.04 | 0.01 | 57 | 1008.0 |
| 20260508021100 | 48 | 311 | 0.9 | 1.7 | 0.00 | 0.04 | 0.01 | 56 | 1007.9 |
| 20260508020022 | 48 | 309 | 0.9 | 2.6 | 0.00 | 0.04 | 0.01 | 57 | 1007.9 |
| 20260508015031 | 48 | 309 | 1.7 | 3.5 | 0.00 | 0.04 | 0.01 | 55 | 1008.0 |
| 20260508014032 | 48 | 277 | 1.7 | 3.5 | 0.00 | 0.04 | 0.01 | 55 | 1007.8 |
| 20260508013042 | 49 | 279 | 0.9 | 1.7 | 0.00 | 0.04 | 0.01 | 54 | 1007.8 |
| 20260508012024 | 49 | 279 | 1.7 | 2.6 | 0.00 | 0.04 | 0.01 | 53 | 1007.8 |
| 20260508011035 | 49 | 291 | 0.9 | 2.6 | 0.00 | 0.04 | 0.01 | 53 | 1007.7 |
| 20260508010030 | 49 | 288 | 1.7 | 2.6 | 0.00 | 0.04 | 0.01 | 52 | 1007.7 |
| 20260508005040 | 49 | 295 | 0.9 | 2.6 | 0.00 | 0.04 | 0.01 | 52 | 1007.7 |
| 20260508004052 | 49 | 296 | 1.7 | 5.2 | 0.00 | 0.04 | 0.01 | 51 | 1007.5 |
| 20260508003031 | 50 | 273 | 1.7 | 6.1 | 0.00 | 0.04 | 0.01 | 50 | 1007.4 |
| 20260508002033 | 50 | 344 | 2.6 | 5.2 | 0.00 | 0.04 | 0.01 | 51 | 1007.2 |
| 20260508001021 | 50 | 5 | 2.6 | 5.2 | 0.00 | 0.04 | 0.01 | 50 | 1007.3 |
| 20260508000026 | 50 | 344 | 2.6 | 4.3 | 0.00 | 0.04 | 0.01 | 49 | 1007.2 |
| 20260507235051 | 50 | 311 | 2.6 | 7.8 | 0.00 | 0.04 | 0.01 | 48 | 1007.1 |
| 20260507234040 | 50 | 319 | 4.3 | 7.8 | 0.00 | 0.04 | 0.01 | 48 | 1007.1 |
| 20260507233039 | 50 | 251 | 4.3 | 7.8 | 0.00 | 0.04 | 0.01 | 48 | 1007.1 |
| 20260507232032 | 51 | 264 | 3.5 | 9.6 | 0.00 | 0.04 | 0.01 | 47 | 1007.0 |
| 20260507231035 | 51 | 284 | 3.5 | 7.8 | 0.00 | 0.04 | 0.01 | 47 | 1007.0 |
| 20260507230041 | 51 | 242 | 6.1 | 10.4 | 0.00 | 0.04 | 0.01 | 47 | 1007.1 |
| 20260507225040 | 51 | 267 | 7.0 | 12.2 | 0.00 | 0.04 | 0.01 | 47 | 1007.0 |
| 20260507224029 | 51 | 346 | 4.3 | 13.9 | 0.00 | 0.04 | 0.01 | 46 | 1006.9 |
| 20260507223059 | 52 | 269 | 7.8 | 13.9 | 0.00 | 0.04 | 0.01 | 45 | 1006.8 |
| 20260507222041 | 52 | 273 | 7.8 | 13.9 | 0.00 | 0.04 | 0.01 | 45 | 1007.0 |
| 20260507221051 | 52 | 250 | 3.5 | 13.9 | 0.00 | 0.04 | 0.01 | 46 | 1007.0 |
| 20260507220031 | 51 | 269 | 8.7 | 13.9 | 0.00 | 0.04 | 0.01 | 46 | 1007.1 |
| 20260507215101 | 51 | 248 | 10.4 | 16.5 | 0.00 | 0.04 | 0.01 | 45 | 1007.0 |
| 20260507214032 | 51 | 247 | 8.7 | 18.2 | 0.00 | 0.04 | 0.01 | 44 | 1007.0 |
| 20260507213031 | 51 | 275 | 8.7 | 14.8 | 0.00 | 0.04 | 0.01 | 44 | 1006.8 |
| 20260507212036 | 51 | 284 | 10.4 | 16.5 | 0.00 | 0.04 | 0.01 | 44 | 1006.9 |
| 20260507211037 | 50 | 260 | 8.7 | 18.2 | 0.00 | 0.04 | 0.01 | 46 | 1006.9 |
| 20260507210027 | 50 | 273 | 13.0 | 20.0 | 0.00 | 0.04 | 0.01 | 46 | 1006.9 |
| 20260507205029 | 50 | 279 | 10.4 | 22.6 | 0.00 | 0.04 | 0.01 | 48 | 1006.9 |
| 20260507204041 | 50 | 339 | 9.6 | 20.9 | 0.00 | 0.04 | 0.01 | 48 | 1006.9 |
| 20260507203023 | 52 | 259 | 8.7 | 19.1 | 0.00 | 0.04 | 0.01 | 45 | 1006.7 |
| 20260507202049 | 51 | 271 | 13.9 | 22.6 | 0.00 | 0.04 | 0.01 | 44 | 1006.6 |
| 20260507201036 | 52 | 264 | 12.2 | 20.9 | 0.00 | 0.04 | 0.01 | 44 | 1006.7 |
| 20260507200037 | 51 | 268 | 10.4 | 16.5 | 0.00 | 0.08 | 0.01 | 47 | 1006.7 |
| 20260507195043 | 51 | 270 | 9.6 | 15.6 | 0.00 | 0.08 | 0.01 | 49 | 1006.7 |
| 20260507194044 | 51 | 289 | 8.7 | 20.9 | 0.00 | 0.08 | 0.01 | 48 | 1006.8 |
| 20260507193031 | 52 | 236 | 9.6 | 24.3 | 0.00 | 0.08 | 0.01 | 44 | 1006.7 |
| 20260507192041 | 51 | 282 | 12.2 | 18.2 | 0.00 | 0.08 | 0.01 | 45 | 1006.8 |
| 20260507191023 | 51 | 261 | 12.2 | 20.0 | 0.00 | 0.08 | 0.01 | 46 | 1006.7 |
| 20260507190032 | 51 | 292 | 10.4 | 20.9 | 0.00 | 0.08 | 0.01 | 46 | 1006.7 |
| 20260507185032 | 50 | 238 | 13.0 | 23.5 | 0.00 | 0.08 | 0.01 | 44 | 1006.8 |
| 20260507184024 | 51 | 294 | 13.0 | 20.0 | 0.00 | 0.08 | 0.01 | 46 | 1006.7 |
| 20260507183024 | 51 | 318 | 11.3 | 21.7 | 0.00 | 0.08 | 0.01 | 45 | 1006.6 |
| 20260507182034 | 51 | 242 | 11.3 | 20.0 | 0.00 | 0.08 | 0.01 | 45 | 1006.6 |
| 20260507181101 | 51 | 307 | 10.4 | 20.0 | 0.00 | 0.08 | 0.01 | 44 | 1006.5 |
| 20260507180041 | 51 | 265 | 11.3 | 24.3 | 0.00 | 0.08 | 0.01 | 45 | 1006.7 |
| 20260507175051 | 50 | 298 | 13.0 | 24.3 | 0.00 | 0.08 | 0.01 | 46 | 1006.4 |
| 20260507174030 | 51 | 250 | 12.2 | 19.1 | 0.00 | 0.08 | 0.01 | 45 | 1006.6 |
| 20260507173041 | 50 | 295 | 13.0 | 19.1 | 0.00 | 0.08 | 0.01 | 46 | 1006.4 |
| 20260507172051 | 51 | 251 | 12.2 | 21.7 | 0.00 | 0.08 | 0.01 | 47 | 1006.5 |
| 20260507171032 | 51 | 215 | 10.4 | 23.5 | 0.00 | 0.08 | 0.01 | 47 | 1006.5 |
| 20260507170038 | 51 | 272 | 12.2 | 24.3 | 0.00 | 0.08 | 0.01 | 45 | 1006.5 |
| 20260507165038 | 51 | 234 | 12.2 | 26.1 | 0.00 | 0.08 | 0.01 | 46 | 1006.6 |
| 20260507164049 | 50 | 310 | 14.8 | 24.3 | 0.00 | 0.08 | 0.01 | 45 | 1006.6 |
| 20260507163031 | 50 | 218 | 12.2 | 26.1 | 0.00 | 0.08 | 0.01 | 48 | 1006.7 |
| 20260507162041 | 50 | 257 | 12.2 | 28.7 | 0.00 | 0.08 | 0.01 | 48 | 1006.7 |
| 20260507161041 | 49 | 279 | 13.9 | 26.1 | 0.00 | 0.08 | 0.01 | 48 | 1006.8 |
| 20260507160033 | 50 | 245 | 13.9 | 23.5 | 0.00 | 0.24 | 0.01 | 45 | 1006.8 |
| 20260507155048 | 50 | 217 | 9.6 | 28.7 | 0.00 | 0.24 | 0.01 | 47 | 1006.8 |
| 20260507154035 | 49 | 281 | 13.9 | 24.3 | 0.00 | 0.24 | 0.01 | 50 | 1006.7 |
| 20260507153044 | 49 | 244 | 13.0 | 22.6 | 0.00 | 0.24 | 0.01 | 53 | 1006.7 |
| 20260507152044 | 49 | 297 | 7.8 | 21.7 | 0.00 | 0.24 | 0.01 | 57 | 1006.7 |
| 20260507151033 | 48 | 229 | 10.4 | 16.5 | 0.00 | 0.24 | 0.01 | 57 | 1006.8 |
| 20260507150043 | 47 | 268 | 12.2 | 20.9 | 0.00 | 0.24 | 0.01 | 58 | 1006.7 |
| 20260507145039 | 47 | 240 | 10.4 | 20.0 | 0.00 | 0.47 | 0.01 | 59 | 1006.9 |
| 20260507144043 | 47 | 198 | 11.3 | 21.7 | 0.00 | 0.47 | 0.01 | 59 | 1006.9 |
| 20260507143045 | 47 | 238 | 12.2 | 21.7 | 0.00 | 0.47 | 0.01 | 59 | 1006.9 |
| 20260507142034 | 47 | 244 | 9.6 | 19.1 | 0.00 | 0.47 | 0.01 | 59 | 1006.9 |
| 20260507141044 | 47 | 223 | 9.6 | 18.2 | 0.00 | 0.47 | 0.01 | 60 | 1006.9 |
| 20260507140026 | 46 | 245 | 8.7 | 17.4 | 0.00 | 0.71 | 0.01 | 61 | 1006.9 |
| 20260507135027 | 46 | 245 | 10.4 | 17.4 | 0.00 | 0.71 | 0.01 | 60 | 1006.9 |
| 20260507134035 | 46 | 236 | 8.7 | 18.2 | 0.00 | 0.71 | 0.01 | 61 | 1006.9 |
| 20260507133039 | 45 | 239 | 10.4 | 17.4 | 0.00 | 0.71 | 0.01 | 62 | 1007.0 |
| 20260507132040 | 45 | 252 | 11.3 | 23.5 | 0.00 | 0.71 | 0.01 | 63 | 1007.1 |
| 20260507131029 | 44 | 305 | 10.4 | 20.9 | 0.00 | 0.71 | 0.01 | 63 | 1007.3 |
| 20260507130030 | 44 | 175 | 9.6 | 16.5 | 0.00 | 0.91 | 0.01 | 64 | 1007.2 |
| 20260507125059 | 45 | 252 | 6.1 | 19.1 | 0.00 | 0.91 | 0.01 | 65 | 1007.1 |
| 20260507124046 | 44 | 209 | 7.0 | 14.8 | 0.00 | 0.91 | 0.01 | 66 | 1007.3 |
| 20260507123050 | 44 | 288 | 9.6 | 19.1 | 0.00 | 0.91 | 0.01 | 66 | 1007.2 |
| 20260507122029 | 44 | 219 | 9.6 | 19.1 | 0.00 | 0.91 | 0.01 | 67 | 1007.2 |
| 20260507121030 | 43 | 188 | 12.2 | 21.7 | 0.00 | 0.91 | 0.01 | 66 | 1007.1 |
| 20260507120040 | 43 | 223 | 8.7 | 22.6 | 0.00 | 0.91 | 0.01 | 67 | 1007.2 |
| 20260507115049 | 43 | 239 | 7.8 | 17.4 | 0.00 | 1.10 | 0.01 | 68 | 1007.0 |
| 20260507114049 | 43 | 244 | 12.2 | 22.6 | 0.00 | 1.10 | 0.01 | 69 | 1007.0 |
| 20260507113057 | 43 | 198 | 9.6 | 20.0 | 0.00 | 1.10 | 0.01 | 70 | 1007.0 |
| 20260507112044 | 43 | 257 | 7.0 | 20.0 | 0.00 | 1.10 | 0.01 | 72 | 1007.1 |
| 20260507111023 | 43 | 228 | 12.2 | 24.3 | 0.00 | 1.10 | 0.01 | 71 | 1007.3 |
| 20260507110034 | 44 | 246 | 8.7 | 19.1 | 0.00 | 1.22 | 0.01 | 72 | 1006.9 |
| 20260507105033 | 44 | 198 | 10.4 | 18.2 | 0.00 | 1.22 | 0.01 | 77 | 1006.7 |
| 20260507104022 | 44 | 219 | 8.7 | 16.5 | 0.00 | 1.22 | 0.01 | 82 | 1006.4 |
| 20260507103023 | 44 | 229 | 7.0 | 14.8 | 0.04 | 1.22 | 0.01 | 84 | 1006.3 |
| 20260507102036 | 44 | 217 | 7.8 | 13.9 | 0.04 | 1.22 | 0.01 | 86 | 1006.4 |
| 20260507051043 | 44 | 212 | 3.5 | 7.8 | 0.00 | 1.22 | 0.00 | 86 | 1007.3 |
| 20260507050048 | 44 | 194 | 4.3 | 6.1 | 0.00 | 1.22 | 0.00 | 86 | 1007.4 |
| 20260507045025 | 45 | 244 | 2.6 | 7.0 | 0.00 | 1.22 | 0.00 | 86 | 1007.6 |
| 20260507044033 | 45 | 172 | 3.5 | 7.8 | 0.00 | 1.22 | 0.00 | 86 | 1007.8 |
| 20260507043034 | 45 | 218 | 4.3 | 9.6 | 0.00 | 1.22 | 0.00 | 86 | 1007.8 |
| 20260507042045 | 45 | 292 | 5.2 | 8.7 | 0.00 | 1.22 | 0.00 | 86 | 1008.0 |
| 20260507041026 | 45 | 215 | 5.2 | 8.7 | 0.00 | 1.22 | 0.00 | 86 | 1008.0 |
| 20260507040055 | 45 | 250 | 2.6 | 10.4 | 0.00 | 1.22 | 0.24 | 86 | 1008.1 |
| 20260507035045 | 45 | 258 | 4.3 | 7.0 | 0.00 | 1.22 | 0.24 | 86 | 1008.1 |
| 20260507034026 | 45 | 237 | 3.5 | 7.0 | 0.00 | 1.22 | 0.24 | 86 | 1008.1 |
| 20260507033036 | 45 | 223 | 5.2 | 8.7 | 0.00 | 1.22 | 0.24 | 86 | 1008.3 |
| 20260507032036 | 45 | 207 | 3.5 | 5.2 | 0.00 | 1.22 | 0.24 | 85 | 1008.4 |
| 20260507031047 | 45 | 223 | 3.5 | 6.1 | 0.00 | 1.22 | 0.24 | 85 | 1008.3 |
| 20260507030052 | 45 | 213 | 1.7 | 7.0 | 0.00 | 1.22 | 0.24 | 84 | 1008.4 |
| 20260507025035 | 45 | 244 | 4.3 | 7.0 | 0.00 | 1.22 | 0.24 | 84 | 1008.3 |
| 20260507024044 | 45 | 251 | 5.2 | 7.8 | 0.00 | 1.22 | 0.24 | 84 | 1008.4 |